Regional Weather Roundup
Issued by NWS

Home | Current Version | Previous Version | Text Only | Print | Product List | Glossary On
Versions: 1 2 3 4 5 6 7 8 9 10 11 12 13 14 15 16 17 18 19 20 21 22 23 24 25 26 27 28 29 30 31 32 33 34 35 36 37 38 39 40 41 42 43 44 45 46 47 48 49 50
274
ASUS44 KLIX 232010
RWRLA
LOUISIANA WEATHER ROUNDUP
NATIONAL WEATHER SERVICE NEW ORLEANS LA
300 PM CDT WED JUL 23 2014

NOTE: "FAIR" INDICATES FEW OR NO CLOUDS BELOW 12,000 FEET WITH NO
      SIGNIFICANT WEATHER AND/OR OBSTRUCTIONS TO VISIBILITY.
      SKY/WX - SKY CONDITION AND SIGNIFICANT WEATHER.
      TMP - AIR TEMPERATURE.    DP   - DEWPOINT TEMPERATURE.
      RH  - RELATIVE HUMIDITY.  PRES - PRESSURE.
      HX  - HEAT INDEX.         WCI  - WIND CHILL INDEX.

*  THESE STATIONS ARE NOT NWS OR FAA STATIONS AND ARE NOT UNDER
   NWS QUALITY CONTROL.

LAZ040-048-061>063-065-066-069-232100-
SOUTHEAST LOUISIANA

CITY           SKY/WX    TMP DP  RH WIND       PRES   REMARKS
N.O. AUDUBON     N/A     82  73  74 MISG        N/A
N.O. INTL ARPT CLOUDY    83  73  72 VRB5      30.02F
N.O. LAKEFRONT CLOUDY    82  71  69 S5        30.03F
N.O. DOWNTOWN* FAIR      82  68  61 S6        30.03F
SLIDELL        PTSUNNY   83  72  69 S9        30.02F
BATON ROUGE    PTSUNNY   91  71  51 MISG      30.00F HX  97
BOOTHVILLE       N/A     81  72  74 SW6       30.03F
BELLE CHASSE   CLOUDY    81  73  76 S7        30.02F
BOGALUSA*      FAIR      86  68  55 S3        30.03F
GALLIANO*      NOT AVBL
NEW ROADS*     FAIR      88  72  59 N7        30.02F
GONZALES*      FAIR      85  74  71 CALM      30.00F
HAMMOND*       MOSUNNY   88  68  51 SE7       30.02F
HOUMA*         PTSUNNY   81  72  74 SE9       30.03F
PORT FOURCHON* CLEAR     77  73  88 S7        30.04F

$$

LAZ041-044-053-054-232100-
SOUTHWEST LOUISIANA

CITY           SKY/WX    TMP DP  RH WIND       PRES   REMARKS
LAKE CHARLES   MOSUNNY   92  72  51 NE7       30.01F HX  99
LAFAYETTE      SUNNY     90  72  55 NE5       30.01F HX  97
PATTERSON      PTSUNNY   82  75  78 S8        30.06F
SALT POINT       N/A     84  72  67 VRB3      30.01F
NEW IBERIA     MOSUNNY   91  72  53 NE9       30.01F HX  98
CHENAULT AIRPK   N/A     90  72  55 E3        30.02F HX  96

$$

LAZ027-028-232100-
CENTRAL LOUISIANA

CITY           SKY/WX    TMP DP  RH WIND       PRES   REMARKS
FORT POLK      MOSUNNY   91  70  49 E3        30.02F HX  96
ALEXANDRIA INT TSTM      80  75  84 E9        30.01F
ALEXANDRIA     PTSUNNY   88  73  61 N7        30.02F HX  95

$$

LAZ001-002-232100-
NORTHWEST LOUISIANA

CITY           SKY/WX    TMP DP  RH WIND       PRES   REMARKS
SHREVEPORT     MOSUNNY   93  68  43 S3        30.01F HX  97
BARKSDALE AFB  MOSUNNY   90  70  51 SE5       30.01F HX  96
DTN SHREVEPORT SUNNY     90  69  50 CALM      30.01F

$$

LAZ014-016-232100-
NORTHEAST LOUISIANA

CITY           SKY/WX    TMP DP  RH WIND       PRES   REMARKS
MONROE         SUNNY     91  70  49 SE3       30.01F HX  96
TALLULAH       MOSUNNY   89  73  59 CALM      30.02F HX  97

$$




USA.gov is the U.S. government's official web portal to all federal, state and local government web resources and services.